TimeEDT,TemperatureF,Dew PointF,Humidity,Sea Level PressureIn,VisibilityMPH,Wind Direction,Wind SpeedMPH,Gust SpeedMPH,PrecipitationIn,Events,Conditions,WindDirDegrees,DateUTC
12:53 AM,16.0,1.9,54,30.02,10.0,WNW,6.9,-,N/A,,Clear,300,2014-03-09 05:53:00
1:53 AM,14.0,1.9,59,30.02,10.0,West,6.9,-,N/A,,Clear,280,2014-03-09 06:53:00
3:53 AM,12.9,1.0,59,30.02,10.0,WNW,6.9,-,N/A,,Clear,290,2014-03-09 07:53:00
4:53 AM,9.0,-0.9,64,30.03,10.0,West,5.8,-,N/A,,Clear,280,2014-03-09 08:53:00
5:53 AM,5.0,-2.0,73,30.04,10.0,Calm,Calm,-,N/A,,Clear,0,2014-03-09 09:53:00
6:53 AM,1.9,-2.9,80,30.06,10.0,Calm,Calm,-,N/A,,Clear,0,2014-03-09 10:53:00
7:53 AM,1.0,-4.0,79,30.09,10.0,WSW,3.5,-,N/A,,Clear,250,2014-03-09 11:53:00
8:53 AM,10.9,1.9,67,30.10,10.0,WSW,5.8,-,N/A,,Clear,250,2014-03-09 12:53:00
9:53 AM,14.0,3.0,62,30.12,10.0,West,5.8,-,N/A,,Clear,280,2014-03-09 13:53:00
10:53 AM,17.1,3.0,54,30.12,10.0,West,6.9,-,N/A,,Clear,270,2014-03-09 14:53:00
11:53 AM,19.9,3.9,50,30.11,10.0,West,9.2,-,N/A,,Clear,270,2014-03-09 15:53:00
12:53 PM,21.0,3.9,48,30.09,10.0,WSW,8.1,-,N/A,,Clear,250,2014-03-09 16:53:00
1:53 PM,23.0,3.0,42,30.06,10.0,Variable,5.8,-,N/A,,Clear,0,2014-03-09 17:53:00
2:53 PM,25.0,5.0,43,30.04,10.0,WSW,11.5,-,N/A,,Clear,250,2014-03-09 18:53:00
3:53 PM,26.1,3.9,39,30.01,10.0,WSW,10.4,-,N/A,,Clear,240,2014-03-09 19:53:00
4:53 PM,26.1,7.0,44,29.99,10.0,WSW,12.7,-,N/A,,Clear,240,2014-03-09 20:53:00
5:53 PM,26.1,8.1,47,29.96,10.0,WSW,16.1,21.9,N/A,,Scattered Clouds,240,2014-03-09 21:53:00
6:53 PM,26.1,14.0,60,29.95,10.0,SW,17.3,26.5,N/A,,Overcast,220,2014-03-09 22:53:00
7:53 PM,25.0,16.0,69,29.93,10.0,SSW,13.8,-,N/A,,Overcast,210,2014-03-09 23:53:00
8:53 PM,25.0,17.1,72,29.90,9.0,SW,17.3,-,0.00,Snow,Light Snow,220,2014-03-10 00:53:00
9:53 PM,25.0,16.0,69,29.89,3.0,SW,17.3,23.0,0.00,Snow,Light Snow,230,2014-03-10 01:53:00
10:01 PM,25.0,17.1,72,29.86,1.8,SW,15.0,-,0.00,Snow,Light Snow,230,2014-03-10 02:01:00
10:16 PM,24.1,19.0,81,29.86,1.2,SW,8.1,-,0.00,Snow,Light Snow,230,2014-03-10 02:16:00
10:37 PM,24.1,19.9,84,29.85,1.5,SW,8.1,-,0.00,Snow,Light Snow,230,2014-03-10 02:37:00
10:46 PM,24.1,19.9,84,29.85,1.0,WSW,6.9,-,0.00,Snow,Light Snow,240,2014-03-10 02:46:00
10:53 PM,24.1,19.9,84,29.87,1.5,WSW,6.9,-,0.00,Snow,Light Snow,240,2014-03-10 02:53:00
11:14 PM,24.1,19.9,84,29.84,2.0,SW,6.9,-,0.00,Snow,Light Snow,230,2014-03-10 03:14:00
11:26 PM,24.1,19.9,84,29.84,1.5,SW,6.9,-,0.00,Snow,Light Snow,230,2014-03-10 03:26:00
11:53 PM,24.1,21.0,88,29.85,1.8,SW,8.1,-,0.00,Snow,Light Snow,220,2014-03-10 03:53:00
12:09 AM,24.1,21.0,88,29.82,1.2,SSW,5.8,-,0.00,Snow,Light Snow,210,2014-03-10 04:09:00
12:23 AM,24.1,21.0,88,29.81,1.5,South,5.8,-,0.00,Snow,Light Snow,190,2014-03-10 04:23:00
12:44 AM,24.1,21.0,88,29.80,1.2,SSW,6.9,-,0.01,Snow,Light Snow,200,2014-03-10 04:44:00
12:53 AM,24.1,21.0,88,29.83,1.2,SSW,6.9,-,0.01,Snow,Light Snow,200,2014-03-10 04:53:00